Long Beach, CA

11:00 PM PDT on April 23, 2018 (GMT -0700)
Long Beach

Weather History for KLGB - November, 2012

Change the Weather History Date:

Tuesday, November 20, 2012

  Actual Average Record
Temperature  
Mean Temperature 62 °F 60 °F  
Max Temperature 73 °F 71 °F 91 °F (2002)
Min Temperature 50 °F 50 °F 36 °F (1994)
Degree Days  
Heating Degree Days 3 5  
Month to date heating degree days 46 65  
Since 1 July heating degree days 47 86  
Cooling Degree Days 0 0  
Month to date cooling degree days 27 19  
Year to date cooling degree days 1380 1123  
Growing Degree Days 12 (Base 50)    
Moisture  
Dew Point 51 °F    
Average Humidity 67    
Maximum Humidity 89    
Minimum Humidity 44    
Precipitation  
Precipitation 0.00 in 0.03 in 1.41 in (1967)
Month to date precipitation 0.29 0.57  
Year to date precipitation 5.06 9.88  
Since 1 July precipitation 0.65  
Sea Level Pressure  
Sea Level Pressure 30.10 in    
Wind  
Wind Speed 3 mph (NW)    
Max Wind Speed 15 mph    
Max Gust Speed 18 mph    
Visibility 9 miles    
Events      
T = Trace of Precipitation, MM = Missing Value Source: NWS Daily Summary

Daily Weather History Graph

Daily Weather History Graph

Search for Another Location

Airport or City:

Astronomy

Nov. 20, 2012 Rise Set
Actual Time 6:29 AM PST 4:46 PM PST
Civil Twilight 6:03 AM PST 5:13 PM PST
Nautical Twilight 5:32 AM PST 5:43 PM PST
Astronomical Twilight 5:02 AM PST 6:13 PM PST
Moon 12:16 PM PST (11/20) No Moon Set
Length of Visible Light 11h 10m
Length of Day
10h 16m
First Quarter, 52% of the Moon is Illuminated
Nov 20
First Quarter
Nov 28
Full
Dec 6
Last Quarter
Dec 13
New
Dec 19
First Quarter

Hourly Weather History & Observations

Time (PST) Temp. Dew Point Humidity Pressure Visibility Wind Dir Wind Speed Gust Speed Precip Events Conditions
12:53 AM 55.0 °F 50.0 °F 83% 30.16 in 10.0 mi Calm Calm - N/A   Clear
1:53 AM 54.0 °F 50.0 °F 86% 30.16 in 10.0 mi Calm Calm - N/A   Clear
2:53 AM 54.0 °F 50.0 °F 86% 30.14 in 10.0 mi Calm Calm - N/A   Clear
3:53 AM 51.1 °F 48.0 °F 89% 30.14 in 10.0 mi Calm Calm - N/A   Clear
4:53 AM 51.1 °F 48.0 °F 89% 30.14 in 8.0 mi Calm Calm - N/A   Clear
5:53 AM 52.0 °F 48.0 °F 86% 30.14 in 9.0 mi Calm Calm - N/A   Clear
6:53 AM 51.1 °F 48.0 °F 89% 30.15 in 7.0 mi Calm Calm - N/A   Clear
7:53 AM 55.9 °F 52.0 °F 87% 30.16 in 6.0 mi Calm Calm - N/A   Clear
8:53 AM 59.0 °F 53.1 °F 81% 30.16 in 6.0 mi Calm Calm - N/A   Haze
9:53 AM 64.9 °F 48.9 °F 56% 30.15 in 9.0 mi Calm Calm - N/A   Clear
10:53 AM 69.1 °F 48.9 °F 49% 30.12 in 10.0 mi NNW 3.5 mph - N/A   Clear
11:53 AM 71.1 °F 51.1 °F 49% 30.09 in 10.0 mi WNW 6.9 mph - N/A   Clear
12:53 PM 72.0 °F 51.1 °F 48% 30.06 in 10.0 mi WNW 5.8 mph - N/A   Clear
1:53 PM 72.0 °F 48.9 °F 44% 30.04 in 10.0 mi WNW 8.1 mph - N/A   Clear
2:53 PM 69.1 °F 48.9 °F 49% 30.04 in 10.0 mi WNW 13.8 mph - N/A   Clear
3:53 PM 66.9 °F 51.1 °F 57% 30.04 in 10.0 mi NW 8.1 mph - N/A   Scattered Clouds
4:53 PM 64.0 °F 48.9 °F 58% 30.04 in 10.0 mi WNW 6.9 mph - N/A   Clear
5:53 PM 62.1 °F 52.0 °F 70% 30.05 in 10.0 mi NW 5.8 mph - N/A   Clear
6:53 PM 62.1 °F 54.0 °F 75% 30.06 in 10.0 mi WNW 5.8 mph - N/A   Clear
7:53 PM 62.1 °F 54.0 °F 75% 30.06 in 10.0 mi Calm Calm - N/A   Clear
8:53 PM 59.0 °F 53.1 °F 81% 30.07 in 10.0 mi East 4.6 mph - N/A   Clear
9:53 PM 57.9 °F 53.1 °F 84% 30.07 in 10.0 mi Calm Calm - N/A   Clear
10:53 PM 57.9 °F 53.1 °F 84% 30.07 in 10.0 mi Calm Calm - N/A   Clear
11:53 PM 55.9 °F 52.0 °F 87% 30.06 in 10.0 mi Calm Calm - N/A   Clear